Miscellaneous Local Product
Issued by NWS Hastings, NE

Home | Current Version | Previous Version | Graphics & Text | Print | Product List | Glossary On
Versions: 1 2 3 4 5 6 7 8 9 10 11 12 13 14 15 16 17 18 19 20 21 22 23 24 25 26 27 28 29 30 31 32 33 34 35 36 37 38 39 40 41 42 43 44 45 46 47 48 49 50
000
AXUS43 KGID 182302
MISGRI

GID CWA HOURLY WEATHER ROUNDUP
NATIONAL WEATHER SERVICE HASTINGS NE
600 PM CDT MON AUG 18 2014

NOTE: "FAIR" INDICATES FEW OR NO CLOUDS BELOW 12,000 FEET WITH NO
SIGNIFICANT WEATHER AND/OR OBSTRUCTIONS TO VISIBILITY.

...SOUTH CENTRAL NEBRASKA...

CITY           SKY/WX    TMP DP  RH WIND       PRES   REMARKS
GRAND ISLAND   SUNNY     85  70  60 S7        29.85S
HASTINGS       SUNNY     84  63  49 SE8       29.85F
KEARNEY        SUNNY     84  70  61 NE8       29.86F
ORD            SUNNY     87  64  46 E5        29.84S
AURORA         SUNNY     85  70  61 S7        29.84F
LEXINGTON      SUNNY     83  68  59 E8        29.88S
HOLDREGE       SUNNY     83  68  60 CALM      29.86S
HEBRON         SUNNY     86  65  49 S3        29.82F

...NEBRASKA PANHANDLE...

CITY           SKY/WX    TMP DP  RH WIND       PRES   REMARKS
CHADRON        MOSUNNY   88  54  31 NE12      29.91F
ALLIANCE       CLOUDY    70  58  65 VRB5      29.97F
SCOTTSBLUFF    MOSUNNY   81  62  52 E10       29.96F
SIDNEY         MOSUNNY   88  47  24 SE5       29.97S

...WESTERN AND NORTH CENTRAL NEBRASKA...

CITY           SKY/WX    TMP DP  RH WIND       PRES   REMARKS
VALENTINE      SUNNY     87  53  31 NW10      29.90S
AINSWORTH      MOSUNNY   84  58  41 N7        29.90S
ONEILL         SUNNY     86  63  45 NW7       29.85S
BROKEN BOW     SUNNY     85  66  53 SE6       29.88S
IMPERIAL       SUNNY     91  54  28 NE10      29.88F
NORTH PLATTE   MOSUNNY   85  59  41 E9        29.89S
MCCOOK         SUNNY     90  63  40 E15       29.84F HX  91

...EASTERN NEBRASKA...

CITY           SKY/WX    TMP DP  RH WIND       PRES   REMARKS
NORFOLK        MOSUNNY   88  63  43 SW8       29.80F
SO SIOUX CITY  SUNNY     86  70  58 SW7       29.77F HX  90
TEKAMAH        SUNNY     89  70  53 SW6       29.77F HX  94
COLUMBUS       MOSUNNY   84  68  58 W3        29.82F
ALBION         MOSUNNY   86  62  44 CALM      29.83F
OMAHA EPPLEY   MOSUNNY   91  62  37 W8        29.79F HX  91
OFFUTT AFB     SUNNY     88  68  51 SW8       29.79F HX  91
MILLARD        SUNNY     88  66  48 SW7       29.79F HX  90
LINCOLN        SUNNY     89  66  46 SW6       29.81F HX  91
NEBRASKA CITY  SUNNY     85  69  58 S7        29.82F
BEATRICE       SUNNY     87  69  55 SW6       29.82F HX  91
FALLS CITY     SUNNY     89  69  51 SE7       29.81F HX  93

...NORTHERN KANSAS...

CITY           SKY/WX    TMP DP  RH WIND       PRES   REMARKS
GOODLAND       MOSUNNY   93  47  20 NE3       29.89S
HILL CITY      MOSUNNY   92  65  40 E12       29.82F HX  94
NORTON         CLEAR     93  54  26 E12       29.82F HX  91
PHILLIPSBURG   SUNNY     90  63  40 E8        29.82F HX  90
BELOIT         SUNNY     90  66  45 SE6       29.79F HX  92
HAYS           SUNNY     97  61  30 E10       29.79F HX  97
RUSSELL        MOSUNNY   95  66  38 E13       29.77F HX  98
CONCORDIA      SUNNY     87  71  58 SE10      29.81F HX  93
SALINA         SUNNY     93  68  43 S6        29.79F HX  97
TOPEKA         SUNNY     93  64  38 VRB5      29.80F HX  94



USA.gov is the U.S. government's official web portal to all federal, state and local government web resources and services.